Penn Yan, NY

2:28 AM EDT on September 22, 2019 (GMT -0400)
Penn Yan

Weather History for KPEO - August, 2019

Change the Weather History Date:

Sunday, August 25, 2019

  Actual Average (WUND) Record (WUND)
Temperature  
Mean Temperature 62 °F -  
Max Temperature 75 °F - - (-1)
Min Temperature 51 °F - - (-1)
Degree Days  
Heating Degree Days 3    
Growing Degree Days 12 (Base 50)    
Moisture  
Dew Point 55 °F    
Average Humidity 84    
Maximum Humidity 97    
Minimum Humidity 55    
Precipitation  
Precipitation 0.00 in - - ()
Sea Level Pressure  
Sea Level Pressure 30.29 in    
Wind  
Wind Speed 2 mph ()    
Max Wind Speed 7 mph    
Max Gust Speed -    
Visibility 6.5 miles    
Events Fog    
Averages and records for this station are not official NWS values.
T = Trace of Precipitation, MM = Missing Value Source: Averaged Metar Reports

Daily Weather History Graph

Daily Weather History Graph

Search for Another Location

Airport or City:

Astronomy

Aug. 25, 2019 Rise Set
Actual Time 6:25 AM EDT 7:54 PM EDT
Civil Twilight 5:55 AM EDT 8:24 PM EDT
Nautical Twilight 5:20 AM EDT 8:59 PM EDT
Astronomical Twilight 4:41 AM EDT 9:37 PM EDT
Moon 12:54 AM EDT (8/25) 4:17 PM EDT (8/25)
Length of Visible Light 14h 28m
Length of Day
13h 29m
Waning Crescent, 29% of the Moon is Illuminated
Aug 25
Waning Crescent
Aug 30
New
Sep 5
First Quarter
Sep 14
Full
Sep 21
Last Quarter

Hourly Weather History & Observations

Time (EDT) Temp. Dew Point Humidity Pressure Visibility Wind Dir Wind Speed Gust Speed Precip Events Conditions
12:53 AM 51.1 °F 48.9 °F 92% 30.31 in 10.0 mi South 3.5 mph - N/A   Clear
1:53 AM 53.1 °F 51.1 °F 93% 30.30 in 10.0 mi South 3.5 mph - N/A   Clear
2:21 AM 54.0 °F 52.0 °F 93% 30.29 in 10.0 mi Calm Calm - N/A   Partly Cloudy
2:39 AM 54.0 °F 52.0 °F 93% 30.29 in 6.0 mi WSW 3.5 mph - N/A   Mostly Cloudy
2:46 AM 54.0 °F 53.1 °F 97% 30.29 in 1.8 mi WSW 3.5 mph - N/A   Mostly Cloudy
2:53 AM 55.0 °F 54.0 °F 96% 30.29 in 0.8 mi SW 4.6 mph - N/A   Mist
3:40 AM 55.0 °F 54.0 °F 96% 30.30 in 2.0 mi Calm Calm - N/A   Overcast
3:49 AM 55.4 °F 53.6 °F 94% 30.30 in 1.8 mi Calm Calm - N/A   Overcast
3:53 AM 55.0 °F 54.0 °F 96% 30.30 in 1.0 mi SSW 3.5 mph - N/A   Mist
4:00 AM 55.0 °F 54.0 °F 96% 30.30 in 0.5 mi Calm Calm - N/A Fog Fog
4:53 AM 55.0 °F 54.0 °F 96% 30.30 in 0.2 mi SW 3.5 mph - N/A Fog Fog
5:53 AM 55.0 °F 54.0 °F 96% 30.31 in 0.2 mi SW 3.5 mph - N/A Fog Fog
6:53 AM 55.9 °F 55.0 °F 97% 30.33 in 0.2 mi SSW 3.5 mph - N/A Fog Fog
7:53 AM 55.9 °F 55.0 °F 97% 30.34 in 0.2 mi Calm Calm - N/A Fog Fog
8:46 AM 57.0 °F 55.9 °F 96% 30.34 in 2.0 mi Calm Calm - N/A   Overcast
8:48 AM 57.2 °F 55.4 °F 94% 30.34 in 3.0 mi Calm Calm - N/A   Overcast
8:53 AM 57.0 °F 55.9 °F 96% 30.35 in 5.0 mi Calm Calm - N/A   Overcast
9:53 AM 62.1 °F 57.0 °F 84% 30.35 in 10.0 mi Variable 3.5 mph - N/A   Mostly Cloudy
10:03 AM 62.1 °F 57.0 °F 84% 30.34 in 10.0 mi Calm Calm - N/A   Scattered Clouds
10:53 AM 66.0 °F 57.9 °F 75% 30.34 in 10.0 mi Variable 3.5 mph - N/A   Clear
11:53 AM 69.1 °F 55.9 °F 63% 30.32 in 10.0 mi Calm Calm - N/A   Partly Cloudy
12:53 PM 71.1 °F 55.9 °F 59% 30.30 in 10.0 mi North 3.5 mph - N/A   Scattered Clouds
1:53 PM 72.0 °F 55.9 °F 57% 30.29 in 10.0 mi Variable 6.9 mph - N/A   Mostly Cloudy
2:53 PM 71.1 °F 55.9 °F 59% 30.27 in 10.0 mi Calm Calm - N/A   Mostly Cloudy
3:53 PM 73.9 °F 57.0 °F 55% 30.26 in 10.0 mi Variable 3.5 mph - N/A   Mostly Cloudy
4:53 PM 71.1 °F 55.9 °F 59% 30.26 in 10.0 mi Calm Calm - N/A   Mostly Cloudy
5:53 PM 71.1 °F 57.0 °F 61% 30.25 in 10.0 mi Calm Calm - N/A   Scattered Clouds
6:53 PM 72.0 °F 57.0 °F 59% 30.24 in 10.0 mi Calm Calm - N/A   Overcast
7:53 PM 66.0 °F 57.0 °F 73% 30.24 in 10.0 mi Calm Calm - N/A   Clear
8:53 PM 60.1 °F 55.9 °F 86% 30.25 in 10.0 mi Calm Calm - N/A   Partly Cloudy
9:53 PM 59.0 °F 55.0 °F 87% 30.25 in 10.0 mi Calm Calm - N/A   Clear
10:53 PM 57.0 °F 54.0 °F 89% 30.24 in 10.0 mi Calm Calm - N/A   Clear
11:53 PM 57.0 °F 54.0 °F 89% 30.24 in 10.0 mi Calm Calm - N/A   Clear